Weather History for KPRO - February, 2011

Change the Weather History Date:

Monday, February 21, 2011

  Actual Average (KAMW) Record (KAMW)
Temperature  
Mean Temperature 22 °F 27 °F  
Max Temperature 24 °F 36 °F - ()
Min Temperature 21 °F 18 °F - ()
Degree Days  
Heating Degree Days 42 38  
Month to date heating degree days 873  
Since 1 July heating degree days 5028  
Cooling Degree Days 0 0  
Month to date cooling degree days 0  
Year to date cooling degree days 0  
Moisture  
Dew Point 20 °F    
Average Humidity 92    
Maximum Humidity 93    
Minimum Humidity 86    
Precipitation  
Precipitation 0.00 in 0.03 in - ()
Month to date precipitation 0.69  
Sea Level Pressure  
Sea Level Pressure 29.91 in    
Wind  
Wind Speed 21 mph (WNW)    
Max Wind Speed 28 mph    
Max Gust Speed 33 mph    
Visibility 9 miles    
Events Snow    
T = Trace of Precipitation, MM = Missing Value Source: NWS Daily Summary

Daily Weather History Graph

Daily Weather History Graph

Search for Another Location

Airport or City:

Trip Planner

Search our weather history database for the weather conditions in past years. The results will help you decide how hot, cold, wet, or windy it might be!

Date:

Astronomy

Feb. 21, 2011 Rise Set
Actual Time 7:04 AM CST 5:57 PM CST
Civil Twilight 6:35 AM CST 6:25 PM CST
Nautical Twilight 6:03 AM CST 6:57 PM CST
Astronomical Twilight 5:31 AM CST 7:29 PM CST
Moon 10:38 PM CST (2/21) 8:28 AM CST (2/21)
Length of Visible Light 11h 49m
Length of Day
10h 52m
Waning Gibbous, 84% of the Moon is Illuminated
Feb 21
Waning Gibbous
Feb 24
Last Quarter
Mar 4
New
Mar 12
First Quarter
Mar 19
Full

Hourly Weather History & Observations

Time (CST) Temp. Windchill Dew Point Humidity Pressure Visibility Wind Dir Wind Speed Gust Speed Precip Events Conditions
11:35 AM 23.0 °F 8.3 °F 21.2 °F 93% 29.82 in 10.0 mi West 19.6 mph - N/A   Overcast
11:55 AM 23.0 °F 9.2 °F 21.2 °F 93% 29.82 in 10.0 mi West 17.3 mph - N/A   Overcast
12:15 PM 23.0 °F 8.0 °F 21.2 °F 93% 29.82 in 10.0 mi West 20.7 mph - N/A   Overcast
12:35 PM 23.0 °F 8.0 °F 21.2 °F 93% 29.82 in 10.0 mi West 20.7 mph 26.5 mph N/A   Overcast
12:55 PM 23.0 °F 7.2 °F 21.2 °F 93% 29.82 in 7.0 mi West 23.0 mph 28.8 mph N/A Snow Light Snow
1:15 PM 23.0 °F 8.7 °F 21.2 °F 93% 29.82 in 7.0 mi West 18.4 mph 27.6 mph N/A Snow Light Snow
1:35 PM 23.0 °F 6.9 °F 21.2 °F 93% 29.82 in 7.0 mi West 24.2 mph 29.9 mph N/A Snow Light Snow
1:55 PM 23.0 °F 6.6 °F 21.2 °F 93% 29.82 in 5.0 mi West 25.3 mph - N/A Snow Light Snow
2:15 PM 23.0 °F 6.3 °F 21.2 °F 93% 29.83 in 4.0 mi West 26.5 mph 31.1 mph N/A Snow Light Snow
2:35 PM 23.0 °F 6.0 °F 21.2 °F 93% 29.83 in 5.0 mi West 27.6 mph 32.2 mph N/A Snow Light Snow
2:55 PM 23.0 °F 7.2 °F 21.2 °F 93% 29.83 in 10.0 mi West 23.0 mph 31.1 mph N/A Snow Light Snow
3:15 PM 23.0 °F 6.6 °F 21.2 °F 93% 29.85 in 10.0 mi West 25.3 mph 29.9 mph N/A   Overcast
3:35 PM 24.8 °F 9.6 °F 21.2 °F 86% 29.86 in 10.0 mi West 23.0 mph 31.1 mph N/A   Overcast
3:55 PM 24.8 °F 9.3 °F 21.2 °F 86% 29.86 in 10.0 mi West 24.2 mph 32.2 mph N/A   Overcast
4:15 PM 24.8 °F 9.6 °F 21.2 °F 86% 29.87 in 10.0 mi West 23.0 mph 29.9 mph N/A   Overcast
4:35 PM 24.8 °F 10.0 °F 21.2 °F 86% 29.87 in 10.0 mi WNW 21.9 mph 31.1 mph N/A   Overcast
5:15 PM 23.0 °F 6.3 °F 21.2 °F 93% 29.90 in 10.0 mi West 26.5 mph 32.2 mph N/A   Overcast
5:35 PM 23.0 °F 7.2 °F 19.4 °F 86% 29.91 in 10.0 mi West 23.0 mph 29.9 mph N/A   Overcast
5:55 PM 23.0 °F 7.6 °F 19.4 °F 86% 29.91 in 10.0 mi WNW 21.9 mph 27.6 mph N/A   Overcast
6:15 PM 23.0 °F 9.6 °F 19.4 °F 86% 29.92 in 10.0 mi WNW 16.1 mph 21.9 mph N/A   Overcast
6:35 PM 21.2 °F 5.6 °F 19.4 °F 93% 29.94 in 10.0 mi West 20.7 mph 27.6 mph N/A   Overcast
6:55 PM 21.2 °F 5.2 °F 19.4 °F 93% 29.94 in 10.0 mi West 21.9 mph 33.4 mph N/A   Overcast
7:15 PM 21.2 °F 4.9 °F 19.4 °F 93% 29.95 in 10.0 mi West 23.0 mph 28.8 mph N/A   Overcast
7:35 PM 21.2 °F 4.5 °F 19.4 °F 93% 29.96 in 10.0 mi West 24.2 mph 31.1 mph N/A   Overcast
7:55 PM 21.2 °F 3.9 °F 19.4 °F 93% 29.96 in 10.0 mi West 26.5 mph 32.2 mph N/A   Overcast
8:15 PM 21.2 °F 6.0 °F 19.4 °F 93% 29.97 in 10.0 mi West 19.6 mph 28.8 mph N/A   Overcast
8:35 PM 21.2 °F 6.0 °F 19.4 °F 93% 29.97 in 10.0 mi West 19.6 mph 28.8 mph N/A   Overcast
8:55 PM 21.2 °F 6.4 °F 19.4 °F 93% 29.98 in 10.0 mi WNW 18.4 mph 24.2 mph N/A   Overcast
9:15 PM 21.2 °F 5.2 °F 19.4 °F 93% 29.99 in 10.0 mi West 21.9 mph 27.6 mph N/A   Overcast
9:35 PM 21.2 °F 6.4 °F 19.4 °F 93% 29.99 in 10.0 mi WNW 18.4 mph 25.3 mph N/A   Overcast
9:55 PM 21.2 °F 5.2 °F 19.4 °F 93% 30.00 in 10.0 mi WNW 21.9 mph 27.6 mph N/A   Overcast
10:15 PM 21.2 °F 6.8 °F 19.4 °F 93% 30.00 in 10.0 mi WNW 17.3 mph 29.9 mph N/A   Overcast
10:35 PM 21.2 °F 6.0 °F 19.4 °F 93% 30.01 in 10.0 mi WNW 19.6 mph 24.2 mph N/A   Overcast
10:55 PM 21.2 °F 6.4 °F 19.4 °F 93% 30.02 in 10.0 mi WNW 18.4 mph 23.0 mph N/A   Overcast
11:15 PM 21.2 °F 7.8 °F 19.4 °F 93% 30.03 in 10.0 mi WNW 15.0 mph - N/A   Overcast
11:35 PM 21.2 °F 7.8 °F 19.4 °F 93% 30.03 in 10.0 mi WNW 15.0 mph 23.0 mph N/A   Overcast
11:55 PM 21.2 °F 6.4 °F 19.4 °F 93% 30.03 in 10.0 mi WNW 18.4 mph 24.2 mph N/A   Overcast